Stations météo

réclame
Mon MeteoGroup
Hemavan-Skorvfjallet, Suède (2103): Température de l'air & dewpoint: 17.10.2018 22:00:00 - 23.10.2018 22:00:00 (CEST)
Date & Time tt [°C] td [°C]
23.10.2018 22:00:00 -3,2 -3,3
23.10.2018 21:00:00 -4,2 -4,7
23.10.2018 20:00:00 -4,8 -5,3
23.10.2018 19:00:00 -3,9 -4,2
23.10.2018 18:00:00 -2,9 -3,3
23.10.2018 17:00:00 -2,8 -3,2
23.10.2018 16:00:00 -3,1 -3,4
23.10.2018 15:00:00 -2,2 -2,2
23.10.2018 14:00:00 -2,4 -2,4
23.10.2018 13:00:00 -2,5 -2,6
23.10.2018 12:00:00 -2,8 -2,9
23.10.2018 11:00:00 -3,2 -3,5
23.10.2018 10:00:00 -3,4 -3,8
23.10.2018 09:00:00 -3,5 -4,0
23.10.2018 08:00:00 -3,5 -4,2
23.10.2018 07:00:00 -3,8 -4,2
23.10.2018 06:00:00 -3,6 -4,1
23.10.2018 05:00:00 -3,3 -3,6
23.10.2018 04:00:00 -3,3 -3,4
23.10.2018 03:00:00 -3,5 -3,6
23.10.2018 02:00:00 -3,2 -3,3
23.10.2018 01:00:00 -2,9 -3,0
23.10.2018 00:00:00 -2,6 -2,7
22.10.2018 23:00:00 -2,8 -2,9
22.10.2018 22:00:00 -2,4 -2,4
22.10.2018 21:00:00 -2,4 -2,4
22.10.2018 20:00:00 -2,7 -3,0
22.10.2018 19:00:00 -2,4 -2,5
22.10.2018 18:00:00 -2,6 -2,9
22.10.2018 17:00:00 -2,4 -2,7
22.10.2018 16:00:00 -2,3 -2,4
22.10.2018 15:00:00 -1,9 -1,9
22.10.2018 14:00:00 -2,0 -2,0
22.10.2018 13:00:00 -2,0 -2,1
22.10.2018 12:00:00 -1,8 -1,8
22.10.2018 11:00:00 -1,8 -1,8
22.10.2018 10:00:00 -1,8 -1,8
22.10.2018 09:00:00 -1,6 -1,6
22.10.2018 08:00:00 -1,4 -1,4
22.10.2018 07:00:00 -1,4 -1,4
22.10.2018 06:00:00 -2,0 -2,1
22.10.2018 05:00:00 -1,3 -2,3
22.10.2018 04:00:00 -1,7 -2,0
22.10.2018 03:00:00 -1,9 -2,2
22.10.2018 02:00:00 -2,1 -2,1
22.10.2018 01:00:00 -1,3 -1,3
22.10.2018 00:00:00 -1,4 -1,4
21.10.2018 23:00:00 -0,5 -0,6
21.10.2018 22:00:00 -0,1 -0,4
21.10.2018 21:00:00 0,0 -0,1
21.10.2018 20:00:00 0,1 -0,8
21.10.2018 19:00:00 0,0 0,0
21.10.2018 18:00:00 1,1 0,8
21.10.2018 17:00:00 1,5 1,5
21.10.2018 16:00:00 1,2 1,2
21.10.2018 15:00:00 0,2 0,2
21.10.2018 14:00:00 2,1 1,2
21.10.2018 13:00:00 1,6 1,0
21.10.2018 12:00:00 3,2 1,1
21.10.2018 11:00:00 2,7 1,7
21.10.2018 10:00:00 2,7 2,4
21.10.2018 09:00:00 2,3 1,9
21.10.2018 08:00:00 3,9 3,2
21.10.2018 07:00:00 3,8 3,8
21.10.2018 06:00:00 3,7 3,3
21.10.2018 05:00:00 3,0 2,7
21.10.2018 04:00:00 1,3 1,3
21.10.2018 03:00:00 1,3 0,9
21.10.2018 02:00:00 1,4 0,5
21.10.2018 01:00:00 1,4 0,7
21.10.2018 00:00:00 2,3 1,0
20.10.2018 23:00:00 2,2 1,0
20.10.2018 22:00:00 2,2 0,6
20.10.2018 21:00:00 1,8 0,5
20.10.2018 20:00:00 2,1 0,6
20.10.2018 19:00:00 2,0 0,5
20.10.2018 18:00:00 1,8 0,6
20.10.2018 17:00:00 2,2 1,5
20.10.2018 16:00:00 2,2 1,6
20.10.2018 15:00:00 2,3 2,0
20.10.2018 14:00:00 3,0 2,1
20.10.2018 13:00:00 2,3 2,3
20.10.2018 12:00:00 2,3 2,3
20.10.2018 11:00:00 1,8 1,7
20.10.2018 10:00:00 1,7 1,3
20.10.2018 09:00:00 2,0 1,1
20.10.2018 08:00:00 1,9 0,9
20.10.2018 07:00:00 2,2 0,9
20.10.2018 06:00:00 2,3 1,0
20.10.2018 05:00:00 2,0 1,1
20.10.2018 04:00:00 1,7 1,3
20.10.2018 03:00:00 1,6 1,6
20.10.2018 02:00:00 1,4 1,4
20.10.2018 01:00:00 1,2 1,2
20.10.2018 00:00:00 1,7 1,7
19.10.2018 23:00:00 1,7 1,7
19.10.2018 22:00:00 1,8 1,8
19.10.2018 21:00:00 1,7 1,7
19.10.2018 20:00:00 1,6 1,6
19.10.2018 19:00:00 1,6 1,6
19.10.2018 18:00:00 1,6 1,6
19.10.2018 17:00:00 1,7 1,7
19.10.2018 16:00:00 1,5 1,5
19.10.2018 15:00:00 1,4 1,4
19.10.2018 14:00:00 1,7 1,3
19.10.2018 13:00:00 1,6 1,2
19.10.2018 12:00:00 1,9 0,9
19.10.2018 11:00:00 0,8 0,7
19.10.2018 10:00:00 0,8 0,8
19.10.2018 09:00:00 0,8 0,8
19.10.2018 08:00:00 1,2 1,2
19.10.2018 07:00:00 1,4 1,4
19.10.2018 06:00:00 1,6 1,6
19.10.2018 05:00:00 1,7 1,7
19.10.2018 04:00:00 1,7 1,7
19.10.2018 03:00:00 1,7 1,6
19.10.2018 02:00:00 1,5 1,5
19.10.2018 01:00:00 1,4 1,4
19.10.2018 00:00:00 1,4 1,4
18.10.2018 23:00:00 1,3 1,3
18.10.2018 22:00:00 1,0 1,0
18.10.2018 21:00:00 1,2 1,2
18.10.2018 20:00:00 1,2 1,2
18.10.2018 19:00:00 1,2 1,2
18.10.2018 18:00:00 1,0 1,0
18.10.2018 17:00:00 1,0 1,0
18.10.2018 16:00:00 0,4 0,4
18.10.2018 15:00:00 0,1 0,1
18.10.2018 14:00:00 0,3 0,3
18.10.2018 13:00:00 0,7 0,7
18.10.2018 12:00:00 1,0 1,0
18.10.2018 11:00:00 1,1 0,7
18.10.2018 10:00:00 -0,1 -0,1
18.10.2018 09:00:00 0,5 0,2
18.10.2018 08:00:00 1,0 0,9
18.10.2018 07:00:00 1,0 0,7
18.10.2018 06:00:00 1,0 0,7
18.10.2018 05:00:00 1,2 0,2
18.10.2018 04:00:00 1,7 -0,1
18.10.2018 03:00:00 1,2 0,2
18.10.2018 02:00:00 2,1 0,9
18.10.2018 01:00:00 1,8 -0,1
18.10.2018 00:00:00 2,1 0,5
17.10.2018 23:00:00 3,3 1,2
17.10.2018 22:00:00 3,4 3,3

tt = Température de l'air
td = dewpoint

stations d'obs. à proximité